New York Downtown Manhattan/w, NY

12:32 PM EDT on September 17, 2019 (GMT -0400)
New York Downtown Manhattan/w

Weather History for KJRB - May, 2019

Change the Weather History Date:

Sunday, May 12, 2019

  Actual Average (KEWR) Record (KEWR)
Temperature  
Mean Temperature 52 °F -  
Max Temperature 59 °F 72 °F 92 °F (1959)
Min Temperature 46 °F 53 °F 40 °F (1938)
Degree Days  
Heating Degree Days 12    
Growing Degree Days 2 (Base 50)    
Moisture  
Dew Point 47 °F    
Average Humidity 91    
Maximum Humidity 94    
Minimum Humidity 72    
Precipitation  
Precipitation 0.68 in - - ()
Sea Level Pressure  
Sea Level Pressure 29.93 in    
Wind  
Wind Speed 13 mph (NE)    
Max Wind Speed 22 mph    
Max Gust Speed 32 mph    
Visibility 7 miles    
Events Rain    
Averages and records for this station are not official NWS values.
T = Trace of Precipitation, MM = Missing Value Source: NWS Daily Summary

Daily Weather History Graph

Daily Weather History Graph

Search for Another Location

Airport or City:

Astronomy

May. 12, 2019 Rise Set
Actual Time 5:42 AM EDT 8:03 PM EDT
Civil Twilight 5:11 AM EDT 8:34 PM EDT
Nautical Twilight 4:33 AM EDT 9:12 PM EDT
Astronomical Twilight 3:51 AM EDT 9:54 PM EDT
Moon 12:59 PM EDT (5/12) 2:23 AM EDT (5/12)
Length of Visible Light 15h 22m
Length of Day
14h 20m
First Quarter, 57% of the Moon is Illuminated
May 12
First Quarter
May 18
Full
May 26
Last Quarter
Jun 3
New
Jun 10
First Quarter

Hourly Weather History & Observations

Time (EDT) Temp. Windchill Dew Point Humidity Pressure Visibility Wind Dir Wind Speed Gust Speed Precip Events Conditions
12:56 AM 59.0 °F - 50.0 °F 72% 29.98 in 10.0 mi NE 3.5 mph - N/A   Overcast
1:56 AM 57.9 °F - 52.0 °F 81% 29.99 in 10.0 mi South 5.8 mph - 0.01 in Rain Light Rain
2:56 AM 55.0 °F - 51.1 °F 86% 30.00 in 8.0 mi Calm Calm - 0.05 in Rain Light Rain
3:56 AM 54.0 °F - 51.1 °F 90% 29.97 in 10.0 mi NE 11.5 mph - 0.03 in Rain Light Rain
4:24 AM 53.6 °F - 51.8 °F 94% 29.96 in 6.0 mi NNE 13.8 mph - 0.01 in Rain Light Rain
4:56 AM 53.1 °F - 51.1 °F 93% 29.96 in 5.0 mi NNE 15.0 mph 21.9 mph 0.05 in Rain Light Rain
5:56 AM 52.0 °F - 50.0 °F 93% 29.96 in 4.0 mi NE 13.8 mph 20.7 mph 0.03 in Rain Light Rain
6:56 AM 50.0 °F - 48.0 °F 93% 29.96 in 8.0 mi NE 18.4 mph 26.5 mph 0.01 in Rain Light Rain
7:56 AM 48.9 °F - 46.9 °F 93% 29.97 in 8.0 mi NE 18.4 mph 23.0 mph 0.01 in Rain Light Rain
8:12 AM 48.2 °F - 46.4 °F 93% 29.98 in 9.0 mi NE 17.3 mph 24.2 mph 0.00 in Rain Light Rain
8:37 AM 48.2 °F - 46.4 °F 93% 29.97 in 6.0 mi NE 15.0 mph 24.2 mph 0.00 in Rain Light Rain
8:56 AM 48.9 °F - 46.9 °F 93% 29.98 in 8.0 mi NE 16.1 mph 23.0 mph 0.00 in Rain Light Rain
9:56 AM 48.9 °F - 46.9 °F 93% 29.96 in 8.0 mi NE 18.4 mph 27.6 mph 0.02 in Rain Light Rain
10:07 AM 48.2 °F - 46.4 °F 93% 29.96 in 9.0 mi NE 19.6 mph 27.6 mph 0.00 in Rain Light Rain
10:56 AM 48.9 °F - 46.0 °F 90% 29.97 in 7.0 mi NE 17.3 mph 27.6 mph 0.02 in Rain Light Rain
11:56 AM 48.9 °F - 46.9 °F 93% 29.94 in 10.0 mi NE 16.1 mph 26.5 mph 0.06 in Rain Light Rain
12:35 PM 48.2 °F - 46.4 °F 93% 29.92 in 2.5 mi ENE 21.9 mph 28.8 mph 0.03 in Rain Light Rain
12:47 PM 48.2 °F - 46.4 °F 93% 29.91 in 3.0 mi NE 21.9 mph 32.2 mph 0.04 in Rain Light Rain
12:56 PM 50.0 °F - 48.0 °F 93% 29.91 in 4.0 mi ENE 19.6 mph - 0.05 in Rain Light Rain
1:42 PM 48.2 °F - 46.4 °F 93% 29.90 in 6.0 mi NE 12.7 mph - 0.05 in Rain Light Rain
1:56 PM 48.0 °F - 46.0 °F 93% 29.90 in 10.0 mi NE 20.7 mph 27.6 mph 0.06 in Rain Light Rain
2:07 PM 48.2 °F - 46.4 °F 93% 29.91 in 5.0 mi NE 13.8 mph 26.5 mph 0.00 in Rain Light Rain
2:51 PM 48.2 °F - 46.4 °F 93% 29.91 in 2.5 mi ENE 13.8 mph 21.9 mph 0.05 in Rain Light Rain
2:56 PM 48.0 °F - 46.0 °F 93% 29.91 in 2.5 mi ENE 15.0 mph 19.6 mph 0.06 in Rain Light Rain
3:14 PM 48.2 °F - 46.4 °F 93% 29.91 in 4.0 mi NE 11.5 mph - 0.04 in Rain Light Rain
3:56 PM 48.0 °F - 46.0 °F 93% 29.90 in 9.0 mi NE 12.7 mph 20.7 mph 0.14 in Rain Light Rain
4:25 PM 46.4 °F 39.8 °F 44.6 °F 93% 29.90 in 10.0 mi NE 16.1 mph - 0.04 in Rain Light Rain
4:33 PM 46.4 °F 39.5 °F 44.6 °F 93% 29.91 in 6.0 mi NE 17.3 mph - 0.05 in Rain Light Rain
4:56 PM 48.0 °F - 46.0 °F 93% 29.90 in 8.0 mi NE 15.0 mph - 0.07 in Rain Light Rain
5:56 PM 46.9 °F - 44.1 °F 90% 29.89 in 10.0 mi NE 16.1 mph 23.0 mph 0.01 in Rain Light Rain
6:30 PM 48.2 °F - 44.6 °F 87% 29.88 in 10.0 mi NE 18.4 mph 27.6 mph 0.00 in Rain Light Rain
6:56 PM 48.0 °F - 45.0 °F 89% 29.88 in 10.0 mi NE 16.1 mph 21.9 mph 0.00 in Rain Light Rain
7:56 PM 46.9 °F - 44.1 °F 90% 29.89 in 10.0 mi NE 19.6 mph 24.2 mph 0.00 in   Overcast
8:56 PM 46.9 °F - 44.1 °F 90% 29.91 in 6.0 mi NNE 15.0 mph 21.9 mph N/A   Overcast
9:28 PM 46.4 °F 39.8 °F 44.6 °F 93% 29.91 in 5.0 mi NNE 16.1 mph 23.0 mph 0.00 in Rain Light Rain
9:56 PM 46.0 °F 39.0 °F 44.1 °F 93% 29.91 in 9.0 mi NNE 17.3 mph - 0.00 in   Overcast
10:29 PM 46.4 °F 39.8 °F 42.8 °F 87% 29.92 in 10.0 mi NE 16.1 mph - N/A   Overcast
10:56 PM 46.9 °F - 44.1 °F 90% 29.91 in 10.0 mi NE 18.4 mph - N/A   Overcast
11:56 PM 46.9 °F - 44.1 °F 90% 29.91 in 10.0 mi NE 15.0 mph 20.7 mph N/A   Overcast